FENGYUN 1C DEB

Satellite information

Favourite Embed

Satellite Type and Status

DEBRISIN ORBIT

Key statistics

Satellite FENGYUN 1C DEB at a glance.

Uptime

9715

Days in orbit

Revolutions

≈ 14.2

Per day

Orbit

SSO

Sun Synchronous Orbit

Inclination

98.6

Latest

Satellite identification and parameters

Extended collection of information and parameters for FENGYUN 1C DEB.

Object identification

Identified? True

Debris? True

Object name: FENGYUN 1C DEB

International designator: 1999-025BAA

Object number (NORAD): 30936

Object ID (CCSDS): 30936

Country: PEOPLES REPUBLIC OF CHINA (PRC)

Current information (Y/N): Y

RCS size: SMALL

Orbital parameters

Period: 101.168 minutes

Inclination: 98.5818 deg

SMA: 7192.096 km

Apoapsis: 846.998 km

Periapsis: 780.925 km

RAAN: 18.3988 deg

Eccentricy: 0.00459339

Argument of periapsis: 288.1413 deg

Mean anomaly: 199.3395 deg

Mean motion: 14.23375578 rev/day

Mean motion (dot): 0.00001531 rev/day2

B* drag term: 0.00068628466 1/REarth

Two-line elements (TLE)

Creation date: Dec. 14, 2025, 3:07 a.m.

Reference frame: TEME

Reference center: EARTH

Epoch: Dec. 13, 2025, 2:51 p.m. UTC

TLE line 0: 0 FENGYUN 1C DEB

TLE line 1: 1 30936U 99025BAA 25347.61934920 .00001531 00000-0 68628-3 0 9994

TLE line 2: 2 30936 98.5818 18.3988 0045934 288.1413 199.3395 14.23375578971451

Live tracking on map

Real-time ground track for satellite FENGYUN 1C DEB.

In-orbit conjunctions

A list of the most updated potential collisions computed for object FENGYUN 1C DEB.

Target Orbit TCA Probability of collision Miss distance Type
SL-3 R/B LEO 2025-09-30 13:11:53 0.0002865683 212.0 (m) ROCKET BODY
COSMOS 1275 DEB LEO 2025-03-15 08:03:02 0.0001514187 72.0 (m) DEBRIS
DODECAPOLE 2 SSO 2024-12-28 09:57:55 0.0005952382 780.0 (m) PAYLOAD
SL-16 DEB LEO 2024-05-30 11:05:26 0.0001412759 95.0 (m) DEBRIS

Associated space launch

Chinese polar orbiting meteorological satellite

FENGYUN 1C DEB was lifted into orbit during the mission ‘Long March 4B | Feng Yun 1C’, on board a Long March 4B space rocket.

The launch took place on May 10, 1999, 1:33 a.m. from Launch Complex 7.

For more information about the launch, click the button.

Launch to space Long March 4B | Feng Yun 1C
Long March 4B | Feng Yun 1C

Agency: N/A

Status: Launch Successful

Launch date: May 10, 1999, 1:33 a.m. UTC

Rocket: Long March 4B

Launch pad: Launch Complex 7

Location: Taiyuan Satellite Launch Center, People's Republic of China

...

Latest news about this satellite

There are no fresh news available about this satellite. Check back as we update our databases every day.


Newsletter sign-up

Weekly statistics, charts and insights to help you stay on top of the space industry.